Regional Weather Roundup
Issued by NWS

Home | Current Version | Previous Version | Graphics & Text | Print | Product List | Glossary On
Versions: 1 2 3 4 5 6 7 8 9 10 11 12 13 14 15 16 17 18 19 20 21 22 23 24 25 26 27 28 29 30 31 32 33 34 35 36 37 38 39 40 41 42 43 44 45 46 47 48 49 50
269
ASUS44 KMEG 270510
RWRTN
TENNESSEE HOURLY STATE WEATHER ROUNDUP
NATIONAL WEATHER SERVICE MEMPHIS TN
1200 AM CDT TUE JUN 27 2017

TNZ002-004-019-021-049-052-054-088>092-270600-
WEST TENNESSEE

CITY           SKY/WX    TMP DP  RH WIND       PRES   REMARKS
MEMPHIS INTL   PTCLDY    76  61  59 E8        30.09S
NWS MEMPHIS      N/A     69 N/A N/A MISG        N/A
JACKSON        CLOUDY    69  65  86 SE3       30.10S
SOMERVILLE     CLOUDY    66  63  88 CALM      30.10S
COVINGTON      PTCLDY    72  61  68 CALM      30.10S
UNION CITY     PTCLDY    68  61  77 E3        30.09F
BOLIVAR        CLOUDY    66  63  88 CALM      30.10S
HUNTINGDON     CLOUDY    68  61  77 CALM      30.10R
LEXINGTON      PTCLDY    66  63  88 CALM      30.11R
SELMER         CLOUDY    64  61  88 S5        30.11S
SAVANNAH       MOCLDY    64  63  94 S5        30.10S
$$

TNZ008-025-027-028-033-062-065-066-270600-
NORTH MIDDLE TENNESSEE

CITY           SKY/WX    TMP DP  RH WIND       PRES   REMARKS
NASHVILLE      CLOUDY    68  56  65 S5        30.11R
PORTLAND       CLEAR     63  59  88 N5        30.12R
CLARKSVILLE    CLOUDY    66  55  67 CALM      30.11R
SMYRNA         CLOUDY    68  56  65 CALM      30.12S
COOKEVILLE     MOCLDY    61  59  94 SE5       30.11S
GALLATIN       CLOUDY    66  57  72 CALM      30.13R
CROSSVILLE     CLOUDY    58  55  90 CALM      30.15S
$$

TNZ061-075-076-078-094-096-097-270600-
SOUTH MIDDLE TENNESSEE

CITY           SKY/WX    TMP DP  RH WIND       PRES   REMARKS
FAYETTEVILLE   CLEAR     68  59  73 CALM      30.12S
TULLAHOMA      CLEAR     63  57  82 CALM      30.14S
WINCHESTER     CLEAR     63  61  94 CALM      30.13S
MCMINNVILLE    CLEAR     61  61 100 CALM      30.13S
COLUMBIA       CLOUDY    64  64 100 S5        30.08F
SHELBYVILLE    CLOUDY    61  61 100 SE3       30.11F
$$

TNZ017-018-042-046-047-270600-
NORTHEAST TENNESSEE

CITY           SKY/WX    TMP DP  RH WIND       PRES   REMARKS
TRI CITIES     PTCLDY    60  57  89 CALM      30.11
ELIZABETHTON   PTCLDY    57  57 100 CALM      30.12F
$$

TNZ012-013-036-069-073-074-270600-
CENTRAL EAST TENNESSEE

CITY           SKY/WX    TMP DP  RH WIND       PRES   REMARKS
KNOXVILLE      MOCLDY    64  57  78 CALM      30.11R
OAK RIDGE      PTCLDY    60  56  86 CALM      30.13S
DOWNTOWN KNOXV   N/A     61  59  94 CALM      30.11R
GATLINBURG     CLEAR     59  55  88 CALM      30.11S
MORRISTOWN     MOCLDY    61  57  88 CALM      30.11R
JACKSBORO      CLEAR     59  57  94 CALM      30.15F
$$

TNZ083-085-099-270600-
SOUTHEAST TENNESSEE

CITY           SKY/WX    TMP DP  RH WIND       PRES   REMARKS
CHATTANOOGA    MOCLDY    66  62  87 CALM      30.11S
DAYTON         MOCLDY    63  61  94 CALM      30.11R
$$

SKY/WX REPORTED AS FAIR MEANS FEW OR NO CLOUDS BELOW
12 THOUSAND FEET.





USA.gov is the U.S. government's official web portal to all federal, state and local government web resources and services.